Location: Glenmont
(42.6048°N, 73.7696°W)
Time: 23:00:06
(UTC+00:00)

Resurs 01 Rocket - Pass Details

Date: 08 September 2024
Orbit: 628 x 640 km, 97.8° (Epoch: 14 October)

Event Time Altitude Azimuth Distance (km) Brightness Sun altitude
Exits shadow 23:50:15 - 132° (SE) 2,444 4.1 -7.0°
Reaches altitude 10° 23:51:24 10° 126° (SE) 2,029 3.6 -7.2°
Maximum altitude 23:55:08 27° 68° (ENE) 1,223 2.7 -7.9°
Drops below altitude 10° 23:58:53 10° 10° (N) 2,039 4.3 -8.5°
Sets 00:01:20 0° 359° (N) 2,952 5.3 -9.0°
